Volver al catálogo

COSMOS 2251 DEB

ActivoLEO
NORAD 36045·DEBRIS·🇷🇺 Russia

Lanzado Jun 16, 1993 desde Plesetsk Cosmodrome

Loading…

Próximos Pases (próximas 24 horas)

TLE

ObsoletoSource: Space-Track

Época: Sep 8, 2026, 06:20 UTC

1 36045U 93036AXG 26251.26437041  .00008348  00000-0  11924-2 0  9994
2 36045  73.7587 244.8440 0045716 217.7472 142.0492 14.76110994123589

Sigue COSMOS 2251 DEB en tiempo real con AllMySat

Download on the App Store